Belgrade, MT (59714)

6:10 AM MDT on August 28, 2016 (GMT -0600)
Belgrade Gardens | | Change Station
Active Advisory: Air Quality Alert

Elev 4386 ft 45.80 °N, 111.21 °W | Updated 18 seconds ago

Clear
Clear
45.9 °F
Feels Like 46 °F
N
0.0
Wind Variable Wind from NNW
Gusts 2.7 mph

Today
High -- | Low -- °F
--% Chance of Precip.
Yesterday
High -- | Low -- °F
Precip. -- in
Pressure 29.94 in
Visibility 10.0 miles
Clouds Clear
Windchill 46 °F
Dew Point 36 °F
Humidity 69%
Rainfall 0.00 in
Snow Depth Not available.
6:41 AM 8:09 PM
Waning Crescent, 16% visible
METAR KBZN 281156Z 13007KT 10SM CLR 07/02 A3002 RMK AO2 SLP136 T00720022 10167 20067 51016
Pressure 29.94 in
Visibility 10.0 miles
Clouds Clear
Windchill 46 °F
Dew Point 36 °F
Humidity 69%
Rainfall 0.00 in
Snow Depth Not available.
6:41 AM 8:09 PM
Waning Crescent, 16% visible
METAR KBZN 281156Z 13007KT 10SM CLR 07/02 A3002 RMK AO2 SLP136 T00720022 10167 20067 51016

10-Day Weather Forecast

Almanac

Astronomy

Aug. 28, 2016 Rise Set
Actual Time
Civil Twilight
Nautical Twilight
Astronomical Twilight
Moon
Length of Visible Light
Length of Day
Tomorrow will be .
, % of the Moon is Illuminated

Today's Extremes

State Highs State Lows

Community

WunderPhotos

Upload Photos

1,935,552 photos uploaded!

WunderBlog® & News

Nearby

Air Quality

  Air Quality AQ Index Pollutant
Not available.

Snow Depth

Station Depth Elevation

Earthquake Activity

City Distance Mag. Time & Date
Minimum magnitude displayed is 2.5.

Coastal Water Temperatures

Place Temperature

Stations

Nearby Weather Stations

Station Location Temp. Windchill Dew Point Humidity Wind Precip. Elev Updated Type
                   

Watches & Warnings

Air Quality Alert
Issued: 9:00 AM MDT Aug. 27, 2016 – National Weather Service

The Montana department of environmental quality has issued an air
quality alert for Gallatin County in effect until further notice due
to nearby wildfire activity. Significant air quality impacts are
expected in the southern portion of Gallatin County near Yellowstone
National Park and the community of Thompson Falls in Sanders County.
This alert will be updated again at 900am on August 28... 2016.

An air quality alert means that particulates have been trending
upwards and that an exceedence of the 24 hour National ambient air
quality Standard (naaqs) has occurred or may occur in the near
future.

Particulate levels in West Yellowstone are unhealthy for sensitive
groups.

When air quality is unhealthy for sensitive groups... state and local
health officials recommend that people with respiratory or heart
disease... the elderly and children should limit prolonged exertion.

For more information... visit the Montana department of environmental
quality at www.Todaysair.Mt.Gov.